This demonstration page uses our WeatherBlox Daily Observations layout. Learn more.

Left ArrowRight Arrow

31.31129, -92.44514

Hourly Observations for July 1, 2022

Temp ( °F °C ) Dew Point ( °F °C ) Humidity (%) Winds ( mph kmh ) Pressure ( in mb ) Visibility ( mi km ) Precip ( " mm )
12:53 am 00:53 Clear 77 25 73 22.8 88 88 SSE 8 13 30.02 1017 10 16 0.00 0.00
1:53 am 01:53 Clear 77 25 73 22.8 88 88 S 6 9 30.00 1016 10 16 0.00 0.00
2:53 am 02:53 Clear 76 24.4 73 22.8 91 91 SSE 8 13 29.99 1016 10 16 0.00 0.00
3:39 am 03:39 Mostly Clear 76 24.4 73 22.8 91 91 SE 6 9 29.99 1015 9 14 0.00 0.00
3:53 am 03:53 Partly Cloudy 76 24.4 73 22.8 91 91 SE 6 9 29.99 1016 9 14 0.00 0.00
4:53 am 04:53 Mostly Clear 77 25 73 22.8 88 88 ESE 7 11 30.00 1016 9 14 0.00 0.00
5:53 am 05:53 Clear 77 25 73 22.8 88 88 ESE 6 9 30.01 1016 8 13 0.00 0.00
6:53 am 06:53 Cloudy 77 25 74 23.3 90 90 ESE 7 11 30.01 1016 7 11 0.00 0.00
7:53 am 07:53 Cloudy 78 25.6 74 23.3 87 87 E 7 11 30.02 1017 9 14 0.00 0.00
8:12 am 08:12 Cloudy 79 26.1 74 23.3 85 85 ENE 5 7 30.02 1016 9 14 0.00 0.00
8:24 am 08:24 Cloudy 79 26.1 74 23.3 85 85 ESE 6 9 30.02 1016 9 14 0.00 0.00
8:37 am 08:37 Cloudy with Rain 78 25.6 74 23.3 87 87 SSE 8 13 30.04 1017 2 3 0.03 0.76
8:53 am 08:53 Cloudy with Heavy Rain 74 23.3 71 21.7 91 91 S 9 15 30.04 1017 1 2 0.43 10.92
9:00 am 09:00 Cloudy with Heavy Rain 75 23.9 71 21.7 88 88 E 5 7 30.04 1017 0 0 0.26 6.60
9:07 am 09:07 Cloudy with Heavy Rain 75 23.9 72 22.2 90 90 E 5 7 30.04 1017 1 2 0.29 7.37
9:15 am 09:15 Cloudy with Heavy Rain 75 23.9 72 22.2 90 90 NE 3 6 30.04 1017 3 5 0.31 7.87
9:33 am 09:33 Cloudy with Nearby Thunderstorms 75 23.9 72 22.2 90 90 E 5 7 30.04 1017 9 14 0.31 7.87
9:42 am 09:42 Cloudy 75 23.9 72 22.2 90 90 Calm 30.04 1017 8 13 0.31 7.87
9:53 am 09:53 Cloudy 76 24.4 73 22.8 91 91 NE 3 6 30.04 1017 9 14 0.31 7.87
10:02 am 10:02 Cloudy 76 24.4 73 22.8 91 91 Calm 30.03 1017 3 4 0.01 0.25
10:15 am 10:15 Cloudy 76 24.4 73 22.8 91 91 Calm 30.04 1017 1 1 0.12 3.05
10:28 am 10:28 Cloudy 76 24.4 73 22.8 91 91 E 8 13 30.04 1017 1 2 0.29 7.37
10:46 am 10:46 Cloudy 76 24.4 72 22.2 88 88 E 5 7 30.03 1017 3 4 0.36 9.14
10:53 am 10:53 Cloudy 76 24.4 72 22.2 88 88 ENE 5 7 30.04 1017 4 6 0.37 9.40
11:49 am 11:49 Cloudy 79 26 73 23 84 84 E 7 11 30.04 1017 6 10 0.01 0.25
11:53 am 11:53 Cloudy 77 25 73 22.8 88 88 E 5 7 30.04 1017 2 3 0.05 1.27
12:00 pm 12:00 Cloudy 77 25 73 22.8 88 88 ENE 7 11 30.04 1017 1 2 0.09 2.29
12:07 pm 12:07 Cloudy 77 25 74 23.3 90 90 Calm 30.04 1017 2 2 0.13 3.30
12:12 pm 12:12 Cloudy 77 25 74 23.3 90 90 ENE 3 6 30.04 1017 2 3 0.13 3.30
12:14 pm 12:14 Cloudy 77 25 74 23.3 90 90 E 6 9 30.04 1017 3 5 0.13 3.30
12:31 pm 12:31 Cloudy 77 25 74 23.3 90 90 ENE 3 6 30.03 1017 4 6 0.15 3.81
12:53 pm 12:53 Cloudy 79 26.1 75 23.9 88 88 SSE 8 13 30.04 1017 5 8 0.17 4.32
12:59 pm 12:59 Cloudy 78 25.6 75 23.9 90 90 S 8 13 30.03 1017 2 3 0.01 0.25
1:07 pm 13:07 Cloudy 78 25.6 74 23.3 87 87 S 8 13 30.03 1017 3 5 0.02 0.51
1:53 pm 13:53 Partly Cloudy 80 26.7 74 23.3 82 82 SSW 10 17 30.02 1017 10 16 0.02 0.51
2:53 pm 14:53 Mostly Sunny 81 27.2 72 22.2 74 74 S 10 17 30.01 1016 10 16 0.00 0.00
3:53 pm 15:53 Mostly Cloudy 81 27.2 73 22.8 77 77 SSE 8 13 30.00 1016 10 16 0.00 0.00
4:53 pm 16:53 Cloudy 80 26.7 73 22.8 79 79 S 12 19 29.97 1015 10 16 0.00 0.00
5:05 pm 17:05 Mostly Cloudy 80 26.7 72 22.2 76 76 S 8 13 29.96 1014 10 16 0.00 0.00
5:41 pm 17:41 Mostly Cloudy 81 27.2 74 23.3 79 79 SSE 7 11 29.95 1014 10 16 0.00 0.00
5:53 pm 17:53 Mostly Cloudy 80 26.7 73 22.8 79 79 SSE 6 9 29.95 1014 10 16 0.00 0.00
6:53 pm 18:53 Mostly Sunny 80 26.7 72 22.2 76 76 S 8 13 29.95 1014 10 16 0.00 0.00
7:53 pm 19:53 Partly Cloudy 79 26.1 72 22.2 79 79 SSE 9 15 29.96 1014 10 16 0.00 0.00
8:53 pm 20:53 Cloudy 78 25.6 73 22.8 85 85 SSE 8 13 29.96 1015 10 16 0.00 0.00
9:53 pm 21:53 Cloudy 78 25.6 73 22.8 85 85 ESE 7 11 29.97 1015 10 16 0.00 0.00
10:17 pm 22:17 Cloudy 78 25.6 74 23.3 87 87 SE 7 11 29.97 1015 10 16 0.00 0.00
10:45 pm 22:45 Cloudy 78 25.6 74 23.3 87 87 SE 10 17 29.97 1015 10 16 0.00 0.00
10:53 pm 22:53 Cloudy 78 25.6 74 23.3 87 87 ESE 9 15 29.98 1015 10 16 0.00 0.00
11:40 pm 23:40 Mostly Cloudy 78 25.6 74 23.3 87 87 SE 8 13 29.97 1015 10 16 0.00 0.00
11:53 pm 23:53 Cloudy 78 25.6 74 23.3 87 87 SE 8 13 29.98 1015 10 16 0.00 0.00

Powered by AerisWeather